Location: Gadern
(49.5873°N, 8.8138°E)
Time: 21:53:25
(UTC+00:00)

ARIANE 5 R/B - Pass Details

Date: 19 May 2025
Orbit: 614 x 648 km, 98.0° (Epoch: 12 June)

Event Time Altitude Azimuth Distance (km) Brightness Sun altitude
Exits shadow 21:23:53 19° 109° (ESE) 1,476 4.1 -15.7°
Maximum altitude 21:26:01 29° 65° (ENE) 1,149 3.9 -15.9°
Drops below altitude 10° 21:29:46 10° 5° (N) 2,005 6.0 -16.2°
Sets 21:32:11 0° 355° (N) 2,922 7.3 -16.3°
